| time (UTC) | temp F | wind direction | speed MPH | gust MPH | rain 1hr in | rain 24hr in | rain mn in | humidity % | barometer mb |
| 20260502203309 | 64 | 67 | 2.0 | 7.0 | 0.00 | 0.00 | 0.00 | 61 | 12.2 |
| 20260502202309 | 64 | 141 | 3.0 | 9.0 | 0.00 | 0.00 | 0.00 | 60 | 12.5 |
| 20260502201309 | 64 | 59 | 6.0 | 12.0 | 0.00 | 0.00 | 0.00 | 59 | 12.1 |
| 20260502194309 | 66 | 67 | 1.0 | 8.0 | 0.00 | 0.00 | 0.00 | 60 | 12.4 |
| 20260502193310 | 67 | 38 | 3.0 | 9.0 | 0.00 | 0.00 | 0.00 | 60 | 12.4 |
| 20260502192310 | 68 | 76 | 2.0 | 6.0 | 0.00 | 0.00 | 0.00 | 60 | 12.5 |
| 20260502191309 | 69 | 77 | 0.0 | 4.0 | 0.00 | 0.00 | 0.00 | 59 | 12.4 |
| 20260502184310 | 71 | 22 | 0.0 | 3.0 | 0.00 | 0.00 | 0.00 | 57 | 12.5 |
| 20260502164310 | 75 | 346 | 1.0 | 5.0 | 0.00 | 0.00 | 0.00 | 54 | 13.0 |
| 20260502163309 | 76 | 304 | 1.0 | 6.0 | 0.00 | 0.00 | 0.00 | 53 | 13.3 |
| 20260502162309 | 76 | 319 | 0.0 | 5.0 | 0.00 | 0.00 | 0.00 | 53 | 13.5 |
| 20260502152309 | 76 | 290 | 1.0 | 9.0 | 0.00 | 0.00 | 0.00 | 53 | 14.2 |
| 20260502151309 | 77 | 300 | 1.0 | 6.0 | 0.00 | 0.00 | 0.00 | 52 | 14.4 |
| 20260502123309 | 75 | 284 | 3.0 | 11.0 | 0.00 | 0.00 | 0.00 | 54 | 15.7 |
| 20260502122309 | 74 | 259 | 3.0 | 10.0 | 0.00 | 0.00 | 0.00 | 55 | 15.8 |
| 20260502121309 | 75 | 227 | 3.0 | 11.0 | 0.00 | 0.00 | 0.00 | 55 | 15.7 |
| 20260502115309 | 74 | 305 | 0.0 | 12.0 | 0.00 | 0.00 | 0.00 | 57 | 15.9 |
| 20260502113309 | 75 | 278 | 3.0 | 13.0 | 0.00 | 0.00 | 0.00 | 53 | 16.1 |
| 20260502111309 | 74 | 269 | 2.0 | 11.0 | 0.00 | 0.00 | 0.00 | 55 | 16.4 |
| 20260502105309 | 74 | 240 | 2.0 | 9.0 | 0.00 | 0.00 | 0.00 | 55 | 16.3 |
| 20260502104310 | 73 | 239 | 1.0 | 7.0 | 0.00 | 0.00 | 0.00 | 55 | 16.4 |
| 20260502102309 | 72 | 290 | 1.0 | 9.0 | 0.00 | 0.00 | 0.00 | 57 | 16.5 |
| 20260502101309 | 71 | 268 | 1.0 | 9.0 | 0.00 | 0.00 | 0.00 | 58 | 16.5 |
| 20260502091310 | 72 | 284 | 2.0 | 8.0 | 0.00 | 0.00 | 0.00 | 55 | 16.6 |
| 20260502071311 | 57 | 216 | 0.0 | 5.0 | 0.00 | 0.00 | 0.00 | 59 | 16.9 |
| 20260502065309 | 57 | 213 | 0.0 | 0.0 | 0.00 | 0.00 | 0.00 | 58 | 16.5 |
| 20260502064309 | 57 | 213 | 0.0 | 1.0 | 0.00 | 0.00 | 0.00 | 58 | 16.6 |
| 20260502063309 | 56 | 246 | 0.0 | 1.0 | 0.00 | 0.00 | 0.00 | 60 | 16.6 |
| 20260502062309 | 56 | 208 | 0.0 | 0.0 | 0.00 | 0.00 | 0.00 | 60 | 16.5 |
| 20260502061309 | 55 | 206 | 0.0 | 1.0 | 0.00 | 0.00 | 0.00 | 60 | 16.6 |
| 20260502055309 | 54 | 219 | 0.0 | 2.0 | 0.00 | 0.00 | 0.00 | 61 | 16.9 |
| 20260502054309 | 53 | 205 | 0.0 | 2.0 | 0.00 | 0.00 | 0.00 | 62 | 16.7 |
| 20260502053309 | 52 | 213 | 0.0 | 3.0 | 0.00 | 0.00 | 0.00 | 64 | 16.7 |
| 20260502051309 | 50 | 159 | 0.0 | 2.0 | 0.00 | 0.00 | 0.00 | 70 | 16.4 |
| 20260502045309 | 49 | 160 | 0.0 | 0.0 | 0.00 | 0.00 | 0.00 | 69 | 16.4 |
| 20260502044309 | 49 | 159 | 0.0 | 0.0 | 0.00 | 0.00 | 0.00 | 68 | 16.6 |
| 20260502043309 | 49 | 160 | 0.0 | 0.0 | 0.00 | 0.00 | 0.00 | 68 | 16.6 |
| 20260502042310 | 49 | 128 | 0.0 | 1.0 | 0.00 | 0.00 | 0.00 | 68 | 16.5 |
| 20260502041309 | 49 | 138 | 0.0 | 0.0 | 0.00 | 0.00 | 0.00 | 67 | 16.5 |
| 20260502035310 | 49 | 133 | 0.0 | 1.0 | 0.00 | 0.00 | 0.00 | 65 | 16.6 |
| 20260502034309 | 49 | 132 | 0.0 | 0.0 | 0.00 | 0.00 | 0.00 | 65 | 16.6 |
| 20260502033309 | 50 | 132 | 0.0 | 1.0 | 0.00 | 0.00 | 0.00 | 64 | 16.7 |
| 20260502032309 | 50 | 163 | 0.0 | 0.0 | 0.00 | 0.00 | 0.00 | 64 | 16.6 |
| 20260502031309 | 50 | 163 | 0.0 | 0.0 | 0.00 | 0.00 | 0.00 | 63 | 16.7 |
| 20260502025309 | 51 | 163 | 0.0 | 0.0 | 0.00 | 0.00 | 0.00 | 64 | 16.8 |
| 20260502024309 | 51 | 164 | 0.0 | 0.0 | 0.00 | 0.00 | 0.00 | 63 | 16.8 |
| 20260502023310 | 51 | 164 | 0.0 | 0.0 | 0.00 | 0.00 | 0.00 | 63 | 17.0 |
| 20260502014311 | 52 | 146 | 0.0 | 0.0 | 0.00 | 0.00 | 0.00 | 63 | 17.3 |
| 20260502013313 | 52 | 146 | 0.0 | 0.0 | 0.00 | 0.00 | 0.00 | 63 | 17.4 |
| 20260502012309 | 52 | 145 | 0.0 | 0.0 | 0.00 | 0.00 | 0.00 | 63 | 17.4 |
| 20260502011309 | 52 | 146 | 0.0 | 0.0 | 0.00 | 0.00 | 0.00 | 62 | 17.6 |
| 20260502005311 | 53 | 154 | 0.0 | 0.0 | 0.00 | 0.00 | 0.00 | 62 | 17.9 |
| 20260502004310 | 53 | 155 | 0.0 | 0.0 | 0.00 | 0.00 | 0.00 | 61 | 18.0 |
| 20260502003309 | 53 | 159 | 0.0 | 2.0 | 0.00 | 0.00 | 0.00 | 61 | 18.1 |
| 20260502001310 | 54 | 138 | 0.0 | 0.0 | 0.00 | 0.00 | 0.00 | 61 | 18.0 |
| 20260501235312 | 54 | 178 | 0.0 | 0.0 | 0.00 | 0.00 | 0.00 | 60 | 18.3 |
| 20260501234309 | 54 | 157 | 0.0 | 0.0 | 0.00 | 0.00 | 0.00 | 59 | 18.4 |
| 20260501233309 | 55 | 160 | 0.0 | 2.0 | 0.00 | 0.00 | 0.00 | 59 | 18.4 |
| 20260501232309 | 55 | 141 | 0.0 | 0.0 | 0.00 | 0.00 | 0.00 | 58 | 18.6 |
| 20260501231309 | 55 | 141 | 0.0 | 0.0 | 0.00 | 0.00 | 0.00 | 58 | 18.7 |
| 20260501224309 | 56 | 150 | 0.0 | 3.0 | 0.00 | 0.00 | 0.00 | 55 | 18.7 |
| 20260501222309 | 57 | 146 | 0.0 | 2.0 | 0.00 | 0.00 | 0.00 | 53 | 18.7 |
| 20260501220309 | 58 | 145 | 0.0 | 1.0 | 0.00 | 0.00 | 0.00 | 51 | 18.7 |
| 20260501215311 | 59 | 130 | 0.0 | 2.0 | 0.00 | 0.00 | 0.00 | 50 | 18.8 |
| 20260501214310 | 59 | 130 | 2.0 | 2.0 | 0.00 | 0.00 | 0.00 | 49 | 18.8 |
| 20260501213309 | 60 | 131 | 1.0 | 3.0 | 0.00 | 0.00 | 0.00 | 48 | 18.8 |
| 20260501212309 | 60 | 148 | 0.0 | 3.0 | 0.00 | 0.00 | 0.00 | 47 | 18.8 |
| 20260501204309 | 63 | 134 | 0.0 | 3.0 | 0.00 | 0.00 | 0.00 | 44 | 19.2 |